#timestamp,LO_Frequency,Hit,StdDev 
1653886815.1,286046985.0,N
1653886835.9,286046981.5,N
1653886855.7,286046979.6,N
1653886875.5,286046975.0,N
1653886895.4,286046976.0,N
1653886915.2,286046975.9,N
1653886935.0,286046972.7,N
1653886936.0,286046972.7,N
1653886955.8,286046972.8,N
1653886975.6,286046967.5,N
1653886995.5,286046959.6,Y
1653887015.3,286046961.3,P
1653887035.1,286046963.5,N
1653887055.9,286046967.6,N
1653887075.7,286046965.8,Y
1653887095.6,286046994.6,P
1653887115.4,286046990.3,N
1653887135.2,286046995.7,N
1653887155.1,286046989.4,N
1653887156.0,286046989.4,N
1653887175.8,286046987.9,N
1653887195.6,286046985.2,N
1653887215.5,286046981.3,N
1653887235.3,286046983.4,N
1653887255.2,286046986.2,N
1653887275.9,286046981.0,N
1653887295.7,286046982.7,N
1653887315.6,286046978.0,Y
1653887335.4,286046990.0,P
1653887355.2,286046986.1,P
1653887375.1,286046989.6,P
1653887376.0,286046989.6,Y
1653887395.8,286047000.3,P
1653887415.7,286046998.7,N
1653887435.5,286046995.4,N
1653887455.3,286046994.2,N
1653887475.2,286046990.9,N
1653887495.0,286046992.8,N
1653887495.9,286046992.8,N
1653887515.7,286046990.9,N
1653887535.6,286046989.0,N
1653887555.4,286046986.2,Y
1653887575.3,286046991.3,P
1653887595.1,286046989.4,P
1653887596.0,286046989.4,P
1653887615.8,286046993.6,Y
1653887635.7,286047001.6,P
1653887655.5,286047004.5,N
1653887675.4,286047011.6,N
1653887695.2,286047017.9,N
1653887715.0,286047018.9,N
1653887715.9,286047018.9,N
1653887735.8,286047017.7,N
1653887755.6,286047024.1,N
1653887775.4,286047036.4,Y
1653887795.3,286047021.5,P
1653887815.1,286047020.6,P
1653887835.9,286047020.9,P
1653887855.7,286047027.5,Y
1653887875.5,286047013.0,P
1653887895.4,286047020.4,P
1653887915.2,286047030.5,P
1653887935.0,286047040.5,Y
1653887936.0,286047040.5,P
1653887955.8,286047023.5,N
1653887975.6,286047025.3,N
1653887995.5,286047024.0,Y
1653888015.3,286046994.6,P
1653888035.1,286046987.6,N
1653888055.9,286046982.5,N
1653888075.7,286046979.1,N
1653888095.6,286046974.2,N
1653888115.4,286046970.7,N
1653888135.2,286046965.5,N
1653888155.1,286046962.9,N
1653888156.0,286046962.9,N
1653888175.8,286046961.9,N
1653888195.7,286046960.6,N
1653888215.5,286046960.7,N
1653888235.3,286046961.1,N
1653888255.2,286046956.5,N
1653888275.9,286046953.9,N
1653888295.7,286046949.0,N
1653888315.6,286046940.7,Y
1653888335.4,286046967.3,P
1653888355.3,286046966.1,P
1653888375.1,286046961.1,P
1653888376.0,286046961.1,Y
1653888395.8,286046987.5,P
1653888415.7,286046986.3,N
1653888435.5,286046983.5,N
1653888455.3,286046976.1,N
1653888475.2,286046974.5,Y
1653888495.0,286046995.8,P
1653888495.9,286046995.8,N
1653888515.8,286046997.9,N
1653888565.6,286046999.4,E
1653888575.5,286046996.7,N
1653888595.4,286046994.9,P
1653888615.2,286046989.0,P
1653888635.1,286046987.2,Y
1653888636.0,286046987.2,P
1653888655.8,286046991.9,N
1653888675.6,286046985.7,P
1653888695.5,286046982.4,Y
1653888715.3,286046989.4,P
1653888735.2,286046985.9,P
1653888755.9,286046980.8,P
1653888775.7,286046974.2,Y
1653888795.6,286046989.6,P
1653888815.4,286046987.9,P
1653888835.2,286046984.3,P
1653888855.1,286046989.4,Y
1653888856.0,286046989.4,P
1653888875.8,286047006.0,P
1653888895.7,286047004.2,N
1653888915.5,286046998.4,N
1653888935.3,286047000.5,N
1653888955.2,286047002.8,N
1653888975.0,286047002.0,N
1653888975.9,286047002.0,N
1653888995.8,286047001.6,N
1653889015.6,286047005.6,N
1653889035.5,286047005.4,N
1653889055.3,286047001.7,N
1653889075.1,286047001.0,N
1653889095.9,286047001.8,N
1653889115.7,286047013.8,N
1653889135.5,286047025.2,Y
1653889155.4,286047022.8,P
1653889175.2,286047025.1,N
1653889195.1,286047016.4,N
1653889196.0,286047016.4,N
1653889215.8,286047007.8,N
1653889235.6,286047002.6,N
1653889255.5,286046993.1,N
1653889275.3,286046987.3,N
1653889295.1,286046979.1,N
1653889315.9,286046972.5,N
1653889335.7,286046969.3,N
1653889355.6,286046971.4,N
1653889375.4,286046968.4,N
1653889395.2,286046970.8,N
1653889415.1,286046961.5,N
1653889416.0,286046961.5,N
1653889435.8,286046958.6,N
1653889455.6,286046962.8,N
1653889475.5,286046970.8,N
1653889495.3,286046964.0,N
1653889515.2,286046959.4,N
1653889535.9,286046956.7,N
1653889555.7,286046952.0,N
1653889575.6,286046953.2,N
1653889595.4,286046948.2,N
1653889615.2,286046949.9,N
1653889635.1,286046953.2,N
1653889636.0,286046953.2,N
1653889655.8,286046950.6,N
1653889675.7,286046950.2,N
1653889695.5,286046947.8,N
1653889715.3,286046944.3,N
1653889735.2,286046938.3,Y
1653889755.0,286046962.4,P
1653889755.9,286046962.4,P
1653889775.8,286046962.5,P
1653889795.6,286046963.4,Y
1653889815.4,286046993.6,P
1653889835.3,286046990.3,N
1653889855.1,286046991.3,N
1653889875.9,286046991.6,N
1653889895.7,286046994.6,N
1653889915.5,286046997.4,N
1653889935.4,286047008.8,N
1653889955.2,286047008.3,N
1653889975.0,286047003.9,N
1653889975.9,286047003.9,N
1653889995.8,286046996.9,N
1653890015.6,286046993.6,N
1653890035.5,286046995.4,N
1653890055.3,286046996.4,N
1653890075.1,286046997.5,N
1653890095.9,286047002.7,N
1653890115.7,286047011.7,N
1653890135.5,286047024.0,N
1653890155.4,286047029.6,N
1653890175.2,286047031.0,N
1653890195.1,286047032.2,N
1653890196.0,286047032.2,N
1653890215.8,286047037.6,N
1653890235.6,286047042.8,N
1653890255.5,286047044.8,N
1653890275.3,286047046.7,N
1653890295.1,286047048.4,N
1653890315.9,286047052.3,N
1653890335.7,286047052.3,N
1653890355.6,286047048.2,N
1653890375.4,286047045.4,N
1653890395.2,286047039.5,N
